Time,TemperatureF,DewpointF,PressureIn,WindDirection,WindDirectionDegrees,WindSpeedMPH,WindSpeedGustMPH,Humidity,HourlyPrecipIn,Conditions,Clouds,dailyrainin,SoftwareType,DateUTC
2013-02-28 00:03:00,34.1,30.6,29.84,NW,325,0.0,0.0,87,0.00,,,0.42,Wunderground v.1.15,2013-02-28 06:03:00,
2013-02-28 00:13:00,34.1,30.4,29.84,NW,324,0.0,0.0,86,0.00,,,0.42,Wunderground v.1.15,2013-02-28 06:13:00,
2013-02-28 00:23:00,34.1,30.4,29.84,NNW,340,0.0,0.0,86,0.00,,,0.42,Wunderground v.1.15,2013-02-28 06:23:00,
2013-02-28 00:33:00,34.1,30.4,29.85,NNW,333,0.0,0.0,86,0.00,,,0.42,Wunderground v.1.15,2013-02-28 06:33:00,
2013-02-28 00:43:00,34.1,30.4,29.85,NNW,338,0.0,0.0,86,0.00,,,0.42,Wunderground v.1.15,2013-02-28 06:43:00,
2013-02-28 00:53:00,34.1,30.4,29.85,North,355,0.0,0.0,86,0.00,,,0.42,Wunderground v.1.15,2013-02-28 06:53:00,
2013-02-28 01:03:00,34.1,30.4,29.85,NNW,341,0.0,0.0,86,0.00,,,0.42,Wunderground v.1.15,2013-02-28 07:03:00,
2013-02-28 01:13:00,33.9,30.2,29.85,NNW,333,0.0,0.0,86,0.00,,,0.42,Wunderground v.1.15,2013-02-28 07:13:00,
2013-02-28 01:23:00,33.9,30.2,29.85,WNW,296,0.0,0.0,86,0.00,,,0.42,Wunderground v.1.15,2013-02-28 07:23:00,
2013-02-28 01:33:00,33.9,30.4,29.86,NNW,336,0.0,0.0,87,0.00,,,0.42,Wunderground v.1.15,2013-02-28 07:33:00,
2013-02-28 01:43:00,33.9,30.4,29.86,NW,318,0.0,0.0,87,0.00,,,0.42,Wunderground v.1.15,2013-02-28 07:43:00,
2013-02-28 01:53:00,34.1,30.6,29.86,NNW,343,0.0,0.0,87,0.00,,,0.00,Wunderground v.1.15,2013-02-28 07:53:00,
2013-02-28 02:03:00,34.1,30.6,29.86,NW,311,0.0,0.0,87,0.00,,,0.00,Wunderground v.1.15,2013-02-28 08:03:00,
2013-02-28 02:13:00,34.1,30.4,29.86,NNW,332,0.0,0.0,86,0.00,,,0.00,Wunderground v.1.15,2013-02-28 08:13:00,
2013-02-28 02:23:00,34.2,30.4,29.87,NNW,340,0.0,0.0,86,0.00,,,0.00,Wunderground v.1.15,2013-02-28 08:23:00,
2013-02-28 02:33:00,34.2,30.4,29.87,NNW,341,0.0,0.0,86,0.00,,,0.00,Wunderground v.1.15,2013-02-28 08:33:00,
2013-02-28 02:43:00,34.1,30.4,29.87,NNW,334,0.0,0.0,86,0.00,,,0.00,Wunderground v.1.15,2013-02-28 08:43:00,
2013-02-28 02:53:00,34.1,30.4,29.87,WNW,300,0.0,0.0,86,0.00,,,0.00,Wunderground v.1.15,2013-02-28 08:53:00,
2013-02-28 03:03:00,33.9,30.2,29.87,NW,319,0.0,0.0,86,0.00,,,0.00,Wunderground v.1.15,2013-02-28 09:03:00,
2013-02-28 03:13:00,33.9,30.2,29.88,NNW,338,0.0,0.0,86,0.00,,,0.00,Wunderground v.1.15,2013-02-28 09:13:00,
2013-02-28 03:23:00,33.9,30.2,29.88,NNW,348,0.0,0.0,86,0.00,,,0.00,Wunderground v.1.15,2013-02-28 09:23:00,
2013-02-28 03:33:00,33.9,30.2,29.88,NW,325,0.0,0.0,86,0.00,,,0.00,Wunderground v.1.15,2013-02-28 09:33:00,
2013-02-28 03:43:00,33.9,30.2,29.88,NNW,346,0.0,0.0,86,0.00,,,0.00,Wunderground v.1.15,2013-02-28 09:43:00,
2013-02-28 03:53:00,33.9,30.2,29.88,North,350,0.0,0.0,86,0.00,,,0.00,Wunderground v.1.15,2013-02-28 09:53:00,
2013-02-28 04:03:00,33.9,30.2,29.89,NNW,337,0.0,0.0,86,0.00,,,0.00,Wunderground v.1.15,2013-02-28 10:03:00,
2013-02-28 04:13:00,33.9,30.2,29.89,North,355,0.0,0.0,86,0.00,,,0.00,Wunderground v.1.15,2013-02-28 10:13:00,
2013-02-28 04:23:00,34.1,30.1,29.89,North,355,0.0,0.0,85,0.00,,,0.00,Wunderground v.1.15,2013-02-28 10:23:00,
2013-02-28 04:33:00,34.1,30.1,29.89,NNE,31,0.0,0.0,85,0.00,,,0.00,Wunderground v.1.15,2013-02-28 10:33:00,
2013-02-28 04:43:00,34.1,30.1,29.90,NW,322,0.0,0.0,85,0.00,,,0.00,Wunderground v.1.15,2013-02-28 10:43:00,
2013-02-28 04:53:00,34.2,30.2,29.90,NNW,328,0.0,0.0,85,0.00,,,0.00,Wunderground v.1.15,2013-02-28 10:53:00,
2013-02-28 05:07:00,34.4,30.4,29.91,NW,318,0.0,0.0,85,0.00,,,0.00,Wunderground v.1.15,2013-02-28 11:07:00,
2013-02-28 05:13:00,34.5,30.5,29.91,North,9,0.0,0.0,85,0.00,,,0.00,Wunderground v.1.15,2013-02-28 11:13:00,
2013-02-28 05:22:00,34.5,30.2,29.91,NW,311,0.0,0.0,84,0.00,,,0.00,Wunderground v.1.15,2013-02-28 11:22:00,
2013-02-28 05:33:00,34.7,30.4,29.92,NNW,335,0.0,0.0,84,0.00,,,0.00,Wunderground v.1.15,2013-02-28 11:33:00,
2013-02-28 05:43:00,34.7,30.4,29.92,North,350,0.0,0.0,84,0.00,,,0.00,Wunderground v.1.15,2013-02-28 11:43:00,
2013-02-28 05:53:00,34.8,30.2,29.92,NNW,334,0.0,0.0,83,0.00,,,0.00,Wunderground v.1.15,2013-02-28 11:53:00,
2013-02-28 06:02:00,34.8,30.2,29.93,North,10,0.0,0.0,83,0.00,,,0.00,Wunderground v.1.15,2013-02-28 12:02:00,
2013-02-28 06:13:00,34.7,30.1,29.93,NNW,347,0.0,0.0,83,0.00,,,0.00,Wunderground v.1.15,2013-02-28 12:13:00,
2013-02-28 06:22:00,34.7,30.1,29.94,North,355,0.0,0.0,83,0.00,,,0.00,Wunderground v.1.15,2013-02-28 12:22:00,
2013-02-28 06:32:00,34.7,30.4,29.94,NNW,347,0.0,0.0,84,0.00,,,0.00,Wunderground v.1.15,2013-02-28 12:32:00,
2013-02-28 06:42:00,34.7,30.4,29.95,NNW,340,0.0,0.0,84,0.00,,,0.00,Wunderground v.1.15,2013-02-28 12:42:00,
2013-02-28 06:53:00,34.7,30.4,29.95,NNW,329,0.0,0.0,84,0.00,,,0.00,Wunderground v.1.15,2013-02-28 12:53:00,
2013-02-28 07:03:00,34.7,30.4,29.95,NNW,345,0.0,0.0,84,0.00,,,0.00,Wunderground v.1.15,2013-02-28 13:03:00,
2013-02-28 07:13:00,34.7,30.4,29.96,SW,219,0.0,0.0,84,0.00,,,0.00,Wunderground v.1.15,2013-02-28 13:13:00,
2013-02-28 07:23:00,34.8,30.5,29.96,NNW,338,0.0,0.0,84,0.00,,,0.00,Wunderground v.1.15,2013-02-28 13:23:00,
2013-02-28 07:33:00,34.8,30.5,29.96,NNW,343,0.0,0.0,84,0.00,,,0.00,Wunderground v.1.15,2013-02-28 13:33:00,
2013-02-28 07:43:00,34.9,30.6,29.97,NNW,339,0.0,0.0,84,0.00,,,0.00,Wunderground v.1.15,2013-02-28 13:43:00,
2013-02-28 07:53:00,35.1,30.5,29.97,NNW,346,0.0,0.0,83,0.00,,,0.00,Wunderground v.1.15,2013-02-28 13:53:00,
2013-02-28 08:03:00,35.2,30.6,29.97,NNW,332,0.0,0.0,83,0.00,,,0.00,Wunderground v.1.15,2013-02-28 14:03:00,
2013-02-28 08:13:00,35.5,30.5,29.98,NW,316,0.0,0.0,82,0.00,,,0.00,Wunderground v.1.15,2013-02-28 14:13:00,
2013-02-28 08:23:00,35.7,30.4,29.98,West,268,0.0,0.0,81,0.00,,,0.00,Wunderground v.1.15,2013-02-28 14:23:00,
2013-02-28 08:33:00,35.8,30.2,29.98,NNW,340,0.0,0.0,80,0.00,,,0.00,Wunderground v.1.15,2013-02-28 14:33:00,
2013-02-28 08:43:00,36.1,30.5,29.98,NNW,329,0.0,0.0,80,0.00,,,0.00,Wunderground v.1.15,2013-02-28 14:43:00,
2013-02-28 08:53:00,36.3,30.1,29.99,NNW,343,0.0,0.0,78,0.00,,,0.01,Wunderground v.1.15,2013-02-28 14:53:00,
2013-02-28 09:03:00,36.4,30.2,29.99,North,355,0.0,0.0,78,0.00,,,0.01,Wunderground v.1.15,2013-02-28 15:03:00,
2013-02-28 09:13:00,36.4,30.2,29.99,NNW,335,0.0,0.0,78,0.00,,,0.01,Wunderground v.1.15,2013-02-28 15:13:00,
2013-02-28 09:23:00,36.6,30.7,30.00,North,5,0.0,0.0,79,0.00,,,0.01,Wunderground v.1.15,2013-02-28 15:23:00,
2013-02-28 09:33:00,36.6,30.4,30.00,NNW,327,0.0,0.0,78,0.00,,,0.01,Wunderground v.1.15,2013-02-28 15:33:00,
2013-02-28 09:43:00,36.9,30.7,30.00,North,355,0.0,0.0,78,0.00,,,0.01,Wunderground v.1.15,2013-02-28 15:43:00,
2013-02-28 09:53:00,37.0,30.1,30.00,North,5,0.0,0.0,76,0.00,,,0.01,Wunderground v.1.15,2013-02-28 15:53:00,
2013-02-28 10:03:00,37.3,30.4,30.01,NNE,20,0.0,0.0,76,0.00,,,0.01,Wunderground v.1.15,2013-02-28 16:03:00,
2013-02-28 10:13:00,37.6,30.4,30.01,North,355,0.0,0.0,75,0.00,,,0.01,Wunderground v.1.15,2013-02-28 16:13:00,
2013-02-28 10:23:00,37.6,29.7,30.01,NE,35,0.0,0.0,73,0.00,,,0.01,Wunderground v.1.15,2013-02-28 16:23:00,
2013-02-28 10:33:00,37.6,29.7,30.01,NNW,336,0.0,0.0,73,0.00,,,0.01,Wunderground v.1.15,2013-02-28 16:33:00,
2013-02-28 10:43:00,37.8,29.2,30.01,NNE,13,0.0,0.0,71,0.00,,,0.01,Wunderground v.1.15,2013-02-28 16:43:00,
2013-02-28 10:53:00,38.0,29.4,30.02,NNW,340,0.0,0.0,71,0.00,,,0.01,Wunderground v.1.15,2013-02-28 16:53:00,
2013-02-28 11:03:00,38.0,29.4,30.02,North,9,0.0,0.0,71,0.00,,,0.01,Wunderground v.1.15,2013-02-28 17:03:00,
2013-02-28 11:13:00,37.9,29.0,30.02,NNW,344,0.0,0.0,70,0.00,,,0.01,Wunderground v.1.15,2013-02-28 17:13:00,
2013-02-28 11:23:00,37.9,29.0,30.02,North,350,0.0,0.0,70,0.00,,,0.01,Wunderground v.1.15,2013-02-28 17:23:00,
2013-02-28 11:33:00,38.0,28.7,30.02,NNW,327,0.0,0.0,69,0.00,,,0.01,Wunderground v.1.15,2013-02-28 17:33:00,
2013-02-28 11:43:00,38.3,29.0,30.02,WNW,296,0.0,0.0,69,0.00,,,0.01,Wunderground v.1.15,2013-02-28 17:43:00,
2013-02-28 11:53:00,38.6,29.7,30.02,NNE,26,0.0,0.0,70,0.00,,,0.01,Wunderground v.1.15,2013-02-28 17:53:00,
2013-02-28 12:02:00,38.5,29.6,30.02,North,5,0.0,0.0,70,0.00,,,0.01,Wunderground v.1.15,2013-02-28 18:02:00,
2013-02-28 12:12:00,38.5,29.6,30.02,North,11,0.0,0.0,70,0.00,,,0.01,Wunderground v.1.15,2013-02-28 18:12:00,
2013-02-28 12:22:00,38.3,29.0,30.02,North,355,0.0,0.0,69,0.00,,,0.01,Wunderground v.1.15,2013-02-28 18:22:00,
2013-02-28 12:32:00,38.5,28.9,30.02,North,360,0.0,0.0,68,0.00,,,0.01,Wunderground v.1.15,2013-02-28 18:32:00,
2013-02-28 12:42:00,38.6,29.3,30.02,NW,317,0.0,0.0,69,0.00,,,0.01,Wunderground v.1.15,2013-02-28 18:42:00,
2013-02-28 12:53:00,38.5,28.9,30.02,NNW,348,0.0,0.0,68,0.00,,,0.01,Wunderground v.1.15,2013-02-28 18:53:00,
2013-02-28 13:03:00,38.3,28.7,30.03,North,5,0.0,0.0,68,0.00,,,0.01,Wunderground v.1.15,2013-02-28 19:03:00,
2013-02-28 13:13:00,38.2,28.6,30.03,NNW,347,0.0,0.0,68,0.00,,,0.01,Wunderground v.1.15,2013-02-28 19:13:00,
2013-02-28 13:23:00,38.3,28.3,30.03,NNW,338,0.0,0.0,67,0.00,,,0.01,Wunderground v.1.15,2013-02-28 19:23:00,
2013-02-28 13:33:00,38.5,28.5,30.03,NNW,340,0.0,0.0,67,0.00,,,0.01,Wunderground v.1.15,2013-02-28 19:33:00,
2013-02-28 13:43:00,38.3,28.7,30.03,NNW,328,0.0,0.0,68,0.00,,,0.01,Wunderground v.1.15,2013-02-28 19:43:00,
2013-02-28 13:53:00,38.3,29.0,30.03,North,5,0.0,0.0,69,0.00,,,0.01,Wunderground v.1.15,2013-02-28 19:53:00,
2013-02-28 14:03:00,38.3,29.0,30.04,NNW,342,0.0,0.0,69,0.00,,,0.01,Wunderground v.1.15,2013-02-28 20:03:00,
2013-02-28 14:13:00,38.3,29.0,30.04,North,5,0.0,0.0,69,0.00,,,0.01,Wunderground v.1.15,2013-02-28 20:13:00,
2013-02-28 14:23:00,38.2,28.6,30.04,NNW,344,0.0,0.0,68,0.00,,,0.01,Wunderground v.1.15,2013-02-28 20:23:00,
2013-02-28 14:33:00,38.2,28.6,30.04,North,355,0.0,0.0,68,0.00,,,0.01,Wunderground v.1.15,2013-02-28 20:33:00,
2013-02-28 14:43:00,38.2,28.6,30.05,NNE,13,0.0,0.0,68,0.00,,,0.01,Wunderground v.1.15,2013-02-28 20:43:00,
2013-02-28 14:53:00,38.2,28.9,30.05,NNW,329,0.0,0.0,69,0.00,,,0.01,Wunderground v.1.15,2013-02-28 20:53:00,
2013-02-28 15:03:00,37.9,29.0,30.06,NW,324,0.0,0.0,70,0.00,,,0.01,Wunderground v.1.15,2013-02-28 21:03:00,
2013-02-28 15:13:00,37.8,29.9,30.06,NNW,348,0.0,0.0,73,0.00,,,0.01,Wunderground v.1.15,2013-02-28 21:13:00,
2013-02-28 15:23:00,37.2,30.7,30.07,NW,326,0.0,0.0,77,0.00,,,0.01,Wunderground v.1.15,2013-02-28 21:23:00,
2013-02-28 15:33:00,36.7,30.8,30.07,NW,321,0.0,0.0,79,0.00,,,0.01,Wunderground v.1.15,2013-02-28 21:33:00,
2013-02-28 15:47:00,36.1,31.1,30.07,NNW,336,0.0,0.0,82,0.00,,,0.01,Wunderground v.1.15,2013-02-28 21:47:00,
2013-02-28 15:53:00,36.1,31.4,30.07,North,5,0.0,0.0,83,0.00,,,0.01,Wunderground v.1.15,2013-02-28 21:53:00,
2013-02-28 16:03:00,35.8,31.4,30.08,NW,308,0.0,0.0,84,0.00,,,0.01,Wunderground v.1.15,2013-02-28 22:03:00,
2013-02-28 16:13:00,35.8,32.0,30.08,NNW,343,0.0,0.0,86,0.00,,,0.01,Wunderground v.1.15,2013-02-28 22:13:00,
2013-02-28 16:23:00,35.7,32.2,30.08,NNW,340,0.0,0.0,87,0.00,,,0.01,Wunderground v.1.15,2013-02-28 22:23:00,
2013-02-28 16:33:00,35.7,32.2,30.08,NNW,345,0.0,0.0,87,0.00,,,0.01,Wunderground v.1.15,2013-02-28 22:33:00,
2013-02-28 16:43:00,35.5,32.3,30.08,NNW,334,0.0,0.0,88,0.00,,,0.01,Wunderground v.1.15,2013-02-28 22:43:00,
2013-02-28 16:53:00,35.4,32.2,30.08,NNW,327,0.0,0.0,88,0.00,,,0.01,Wunderground v.1.15,2013-02-28 22:53:00,
2013-02-28 17:03:00,35.4,32.2,30.08,NW,304,0.0,0.0,88,0.00,,,0.02,Wunderground v.1.15,2013-02-28 23:03:00,
2013-02-28 17:13:00,35.4,32.2,30.09,North,9,0.0,0.0,88,0.00,,,0.02,Wunderground v.1.15,2013-02-28 23:13:00,
2013-02-28 17:27:00,35.2,32.3,30.09,NNW,346,0.0,0.0,89,0.00,,,0.02,Wunderground v.1.15,2013-02-28 23:27:00,
2013-02-28 17:33:00,35.1,32.2,30.10,North,350,0.0,0.0,89,0.00,,,0.02,Wunderground v.1.15,2013-02-28 23:33:00,
2013-02-28 17:43:00,35.1,32.2,30.10,NNW,331,0.0,0.0,89,0.00,,,0.02,Wunderground v.1.15,2013-02-28 23:43:00,
2013-02-28 17:53:00,35.1,31.9,30.10,NW,320,0.0,0.0,88,0.00,,,0.02,Wunderground v.1.15,2013-02-28 23:53:00,
2013-02-28 18:03:00,35.1,31.9,30.11,NNW,348,0.0,0.0,88,0.00,,,0.02,Wunderground v.1.15,2013-03-01 00:03:00,
2013-02-28 18:13:00,35.1,31.9,30.11,NNW,346,0.0,0.0,88,0.00,,,0.02,Wunderground v.1.15,2013-03-01 00:13:00,
2013-02-28 18:23:00,35.1,31.9,30.11,West,279,0.0,0.0,88,0.00,,,0.02,Wunderground v.1.15,2013-03-01 00:23:00,
2013-02-28 18:33:00,34.9,31.7,30.11,NW,325,0.0,0.0,88,0.00,,,0.02,Wunderground v.1.15,2013-03-01 00:33:00,
2013-02-28 18:43:00,34.9,31.7,30.11,NW,313,0.0,0.0,88,0.00,,,0.02,Wunderground v.1.15,2013-03-01 00:43:00,
2013-02-28 18:53:00,34.9,31.7,30.11,North,349,0.0,0.0,88,0.00,,,0.02,Wunderground v.1.15,2013-03-01 00:53:00,
2013-02-28 19:03:00,34.8,31.6,30.11,North,350,0.0,0.0,88,0.00,,,0.02,Wunderground v.1.15,2013-03-01 01:03:00,
2013-02-28 19:17:00,34.8,31.6,30.11,NNW,348,0.0,0.0,88,0.00,,,0.02,Wunderground v.1.15,2013-03-01 01:17:00,
2013-02-28 19:23:00,34.8,31.6,30.11,North,360,0.0,0.0,88,0.00,,,0.02,Wunderground v.1.15,2013-03-01 01:23:00,
2013-02-28 19:33:00,34.8,31.6,30.11,NW,321,0.0,0.0,88,0.00,,,0.02,Wunderground v.1.15,2013-03-01 01:33:00,
2013-02-28 19:43:00,34.8,31.3,30.11,NW,317,0.0,0.0,87,0.00,,,0.02,Wunderground v.1.15,2013-03-01 01:43:00,
2013-02-28 19:53:00,34.9,31.4,30.11,NNW,331,0.0,0.0,87,0.00,,,0.02,Wunderground v.1.15,2013-03-01 01:53:00,
2013-02-28 20:02:00,34.9,31.4,30.11,NNW,332,0.0,0.0,87,0.00,,,0.02,Wunderground v.1.15,2013-03-01 02:02:00,
2013-02-28 20:17:00,34.8,31.3,30.11,NNW,340,0.0,0.0,87,0.00,,,0.02,Wunderground v.1.15,2013-03-01 02:17:00,
2013-02-28 20:22:00,34.8,31.3,30.11,NNW,340,0.0,0.0,87,0.00,,,0.02,Wunderground v.1.15,2013-03-01 02:22:00,
2013-02-28 20:32:00,34.8,31.3,30.11,NNW,334,0.0,0.0,87,0.00,,,0.02,Wunderground v.1.15,2013-03-01 02:32:00,
2013-02-28 20:43:00,34.7,31.5,30.11,NNW,348,0.0,0.0,88,0.00,,,0.02,Wunderground v.1.15,2013-03-01 02:43:00,
2013-02-28 20:52:00,34.7,31.5,30.11,North,5,0.0,0.0,88,0.00,,,0.02,Wunderground v.1.15,2013-03-01 02:52:00,
2013-02-28 21:02:00,34.7,31.5,30.11,NW,317,0.0,0.0,88,0.00,,,0.02,Wunderground v.1.15,2013-03-01 03:02:00,
2013-02-28 21:12:00,34.5,31.6,30.11,North,349,0.0,0.0,89,0.00,,,0.02,Wunderground v.1.15,2013-03-01 03:12:00,
2013-02-28 21:22:00,34.5,31.6,30.11,NNW,344,0.0,0.0,89,0.00,,,0.02,Wunderground v.1.15,2013-03-01 03:22:00,
2013-02-28 21:32:00,34.5,31.6,30.11,NNW,329,0.0,0.0,89,0.00,,,0.02,Wunderground v.1.15,2013-03-01 03:32:00,
2013-02-28 21:43:00,34.5,31.6,30.12,NNW,338,0.0,0.0,89,0.00,,,0.02,Wunderground v.1.15,2013-03-01 03:43:00,
2013-02-28 21:52:00,34.4,31.5,30.11,NNW,344,0.0,0.0,89,0.00,,,0.02,Wunderground v.1.15,2013-03-01 03:52:00,
2013-02-28 22:02:00,34.4,31.5,30.12,NW,323,0.0,0.0,89,0.00,,,0.02,Wunderground v.1.15,2013-03-01 04:02:00,
2013-02-28 22:12:00,34.4,31.5,30.12,North,360,0.0,0.0,89,0.00,,,0.02,Wunderground v.1.15,2013-03-01 04:12:00,
2013-02-28 22:22:00,34.2,31.3,30.12,North,360,0.0,0.0,89,0.00,,,0.02,Wunderground v.1.15,2013-03-01 04:22:00,
2013-02-28 22:32:00,34.2,31.3,30.12,North,360,0.0,0.0,89,0.00,,,0.02,Wunderground v.1.15,2013-03-01 04:32:00,
2013-02-28 22:43:00,34.1,31.2,30.12,North,360,0.0,0.0,89,0.00,,,0.02,Wunderground v.1.15,2013-03-01 04:43:00,
2013-02-28 22:52:00,34.1,31.2,30.12,North,360,0.0,0.0,89,0.00,,,0.02,Wunderground v.1.15,2013-03-01 04:52:00,
2013-02-28 23:02:00,33.9,31.0,30.12,North,360,0.0,0.0,89,0.00,,,0.02,Wunderground v.1.15,2013-03-01 05:02:00,
2013-02-28 23:12:00,33.9,31.0,30.12,North,360,0.0,0.0,89,0.00,,,0.02,Wunderground v.1.15,2013-03-01 05:12:00,
2013-02-28 23:22:00,33.9,31.0,30.12,North,360,0.0,0.0,89,0.00,,,0.02,Wunderground v.1.15,2013-03-01 05:22:00,
2013-02-28 23:32:00,33.9,31.0,30.12,North,360,0.0,0.0,89,0.00,,,0.02,Wunderground v.1.15,2013-03-01 05:32:00,
2013-02-28 23:37:00,33.9,31.0,30.12,North,360,0.0,0.0,89,0.00,,,0.02,Wunderground v.1.15,2013-03-01 05:37:00,
2013-02-28 23:43:00,33.9,31.0,30.12,North,360,0.0,0.0,89,0.00,,,0.02,Wunderground v.1.15,2013-03-01 05:43:00,
2013-02-28 23:52:00,33.9,31.0,30.11,North,360,0.0,0.0,89,0.00,,,0.02,Wunderground v.1.15,2013-03-01 05:52:00,